Time,TemperatureF,DewpointF,PressureIn,WindDirection,WindDirectionDegrees,WindSpeedMPH,WindSpeedGustMPH,Humidity,HourlyPrecipIn,Conditions,Clouds,dailyrainin,SoftwareType,DateUTC
2013-03-28 00:02:00,37.0,24.8,30.15,WNW,301,3.0,3.0,61,0.00,,,0.00,Wunderground v.1.15,2013-03-28 04:02:00,
2013-03-28 00:03:00,37.0,24.8,30.15,WNW,301,3.0,3.0,61,0.00,,,0.00,Wunderground v.1.15,2013-03-28 04:03:00,
2013-03-28 00:04:00,37.0,24.8,30.15,WNW,287,3.0,3.0,61,0.00,,,0.00,Wunderground v.1.15,2013-03-28 04:04:00,
2013-03-28 00:05:00,37.0,24.8,30.15,West,278,3.0,3.0,61,0.00,,,0.00,Wunderground v.1.15,2013-03-28 04:05:00,
2013-03-28 00:12:00,37.0,24.4,30.15,West,270,3.0,5.0,60,0.00,,,0.00,Wunderground v.1.15,2013-03-28 04:12:00,
2013-03-28 00:17:00,37.1,24.5,30.15,West,267,3.0,5.0,60,0.00,,,0.00,Wunderground v.1.15,2013-03-28 04:17:00,
2013-03-28 00:22:00,37.1,24.5,30.15,West,277,3.0,3.0,60,0.00,,,0.00,Wunderground v.1.15,2013-03-28 04:22:00,
2013-03-28 00:27:00,37.2,24.6,30.14,West,280,4.0,7.0,60,0.00,,,0.00,Wunderground v.1.15,2013-03-28 04:27:00,
2013-03-28 00:33:00,37.1,24.5,30.14,WNW,284,3.0,6.0,60,0.00,,,0.00,Wunderground v.1.15,2013-03-28 04:33:00,
2013-03-28 00:38:00,37.0,24.0,30.14,WNW,283,4.0,6.0,59,0.00,,,0.00,Wunderground v.1.15,2013-03-28 04:38:00,
2013-03-28 00:44:00,36.9,23.9,30.14,WNW,291,5.0,5.0,59,0.00,,,0.00,Wunderground v.1.15,2013-03-28 04:44:00,
2013-03-28 00:50:00,36.6,24.0,30.14,WSW,253,4.0,10.0,60,0.00,,,0.00,Wunderground v.1.15,2013-03-28 04:50:00,
2013-03-28 00:56:00,36.2,24.4,30.14,West,260,4.0,10.0,62,0.00,,,0.00,Wunderground v.1.15,2013-03-28 04:56:00,
2013-03-28 01:02:00,35.9,24.5,30.14,West,261,4.0,10.0,63,0.00,,,0.00,Wunderground v.1.15,2013-03-28 05:02:00,
2013-03-28 01:07:00,35.6,24.6,30.14,WNW,288,3.0,10.0,64,0.00,,,0.00,Wunderground v.1.15,2013-03-28 05:07:00,
2013-03-28 01:13:00,35.5,24.5,30.14,West,270,3.0,10.0,64,0.00,,,0.00,Wunderground v.1.15,2013-03-28 05:13:00,
2013-03-28 01:19:00,35.3,24.3,30.14,WNW,291,3.0,10.0,64,0.00,,,0.00,Wunderground v.1.15,2013-03-28 05:19:00,
2013-03-28 01:25:00,35.2,24.6,30.14,West,280,3.0,10.0,65,0.00,,,0.00,Wunderground v.1.15,2013-03-28 05:25:00,
2013-03-28 01:30:00,35.1,24.5,30.14,WNW,295,3.0,3.0,65,0.00,,,0.00,Wunderground v.1.15,2013-03-28 05:30:00,
2013-03-28 01:36:00,34.9,24.7,30.14,WNW,299,2.0,10.0,66,0.00,,,0.00,Wunderground v.1.15,2013-03-28 05:36:00,
2013-03-28 01:42:00,35.0,24.8,30.14,WNW,294,3.0,10.0,66,0.00,,,0.00,Wunderground v.1.15,2013-03-28 05:42:00,
2013-03-28 01:47:00,34.9,24.3,30.14,West,278,3.0,10.0,65,0.00,,,0.00,Wunderground v.1.15,2013-03-28 05:47:00,
2013-03-28 01:53:00,34.7,24.5,30.14,NW,324,2.0,10.0,66,0.00,,,0.00,Wunderground v.1.15,2013-03-28 05:53:00,
2013-03-28 01:58:00,34.7,24.5,30.14,WNW,289,1.0,10.0,66,0.00,,,0.00,Wunderground v.1.15,2013-03-28 05:58:00,
2013-03-28 02:04:00,34.7,24.1,30.14,West,278,1.0,10.0,65,0.00,,,0.00,Wunderground v.1.15,2013-03-28 06:04:00,
2013-03-28 02:09:00,34.8,24.2,30.14,West,273,2.0,10.0,65,0.00,,,0.00,Wunderground v.1.15,2013-03-28 06:09:00,
2013-03-28 02:14:00,35.1,24.1,30.14,WNW,282,3.0,10.0,64,0.00,,,0.00,Wunderground v.1.15,2013-03-28 06:14:00,
2013-03-28 02:20:00,35.7,23.9,30.14,NW,312,4.0,10.0,62,0.00,,,0.00,Wunderground v.1.15,2013-03-28 06:20:00,
2013-03-28 02:27:00,36.2,23.6,30.13,West,267,5.0,10.0,60,0.00,,,0.00,Wunderground v.1.15,2013-03-28 06:27:00,
2013-03-28 02:33:00,36.3,23.3,30.13,West,278,5.0,10.0,59,0.00,,,0.00,Wunderground v.1.15,2013-03-28 06:33:00,
2013-03-28 02:39:00,36.3,23.3,30.13,NW,306,4.0,10.0,59,0.00,,,0.00,Wunderground v.1.15,2013-03-28 06:39:00,
2013-03-28 02:45:00,36.3,23.3,30.13,WNW,299,4.0,10.0,59,0.00,,,0.00,Wunderground v.1.15,2013-03-28 06:45:00,
2013-03-28 02:51:00,36.2,22.8,30.13,NNW,330,4.0,10.0,58,0.00,,,0.00,Wunderground v.1.15,2013-03-28 06:51:00,
2013-03-28 02:57:00,36.2,22.8,30.13,NW,305,4.0,10.0,58,0.00,,,0.00,Wunderground v.1.15,2013-03-28 06:57:00,
2013-03-28 03:02:00,36.0,23.0,30.13,West,277,3.0,10.0,59,0.00,,,0.00,Wunderground v.1.15,2013-03-28 07:02:00,
2013-03-28 03:08:00,35.8,22.9,30.13,West,274,3.0,10.0,59,0.00,,,0.00,Wunderground v.1.15,2013-03-28 07:08:00,
2013-03-28 03:13:00,35.8,22.9,30.13,West,272,4.0,10.0,59,0.00,,,0.00,Wunderground v.1.15,2013-03-28 07:13:00,
2013-03-28 03:18:00,35.8,22.9,30.13,West,266,4.0,10.0,59,0.00,,,0.00,Wunderground v.1.15,2013-03-28 07:18:00,
2013-03-28 03:23:00,35.7,22.8,30.13,West,270,3.0,10.0,59,0.00,,,0.00,Wunderground v.1.15,2013-03-28 07:23:00,
2013-03-28 03:29:00,35.4,22.5,30.13,West,268,2.0,10.0,59,0.00,,,0.00,Wunderground v.1.15,2013-03-28 07:29:00,
2013-03-28 03:34:00,35.3,22.8,30.13,West,274,2.0,10.0,60,0.00,,,0.00,Wunderground v.1.15,2013-03-28 07:34:00,
2013-03-28 03:39:00,35.2,22.7,30.13,West,262,2.0,10.0,60,0.00,,,0.00,Wunderground v.1.15,2013-03-28 07:39:00,
2013-03-28 03:45:00,35.0,22.5,30.13,WNW,291,2.0,10.0,60,0.00,,,0.00,Wunderground v.1.15,2013-03-28 07:45:00,
2013-03-28 03:51:00,34.8,22.7,30.13,West,268,2.0,10.0,61,0.00,,,0.00,Wunderground v.1.15,2013-03-28 07:51:00,
2013-03-28 03:57:00,34.4,22.3,30.13,West,280,2.0,10.0,61,0.00,,,0.00,Wunderground v.1.15,2013-03-28 07:57:00,
2013-03-28 04:02:00,34.2,22.5,30.13,WNW,287,2.0,10.0,62,0.00,,,0.00,Wunderground v.1.15,2013-03-28 08:02:00,
2013-03-28 04:08:00,34.1,22.4,30.13,West,270,1.0,10.0,62,0.00,,,0.00,Wunderground v.1.15,2013-03-28 08:08:00,
2013-03-28 04:13:00,33.9,22.6,30.13,West,266,1.0,10.0,63,0.00,,,0.00,Wunderground v.1.15,2013-03-28 08:13:00,
2013-03-28 04:18:00,33.8,22.1,30.12,West,265,1.0,10.0,62,0.00,,,0.00,Wunderground v.1.15,2013-03-28 08:18:00,
2013-03-28 04:24:00,33.7,22.4,30.12,West,265,1.0,10.0,63,0.00,,,0.00,Wunderground v.1.15,2013-03-28 08:24:00,
2013-03-28 04:30:00,33.4,22.5,30.12,WSW,257,2.0,2.0,64,0.00,,,0.00,Wunderground v.1.15,2013-03-28 08:30:00,
2013-03-28 04:35:00,33.4,22.5,30.12,WSW,257,2.0,10.0,64,0.00,,,0.00,Wunderground v.1.15,2013-03-28 08:35:00,
2013-03-28 04:41:00,33.4,22.5,30.12,WSW,257,1.0,10.0,64,0.00,,,0.00,Wunderground v.1.15,2013-03-28 08:41:00,
2013-03-28 04:46:00,33.4,22.5,30.13,WSW,252,1.0,10.0,64,0.00,,,0.00,Wunderground v.1.15,2013-03-28 08:46:00,
2013-03-28 04:51:00,33.3,22.8,30.13,WSW,251,0.0,10.0,65,0.00,,,0.00,Wunderground v.1.15,2013-03-28 08:51:00,
2013-03-28 04:57:00,33.0,22.5,30.13,WSW,251,0.0,10.0,65,0.00,,,0.00,Wunderground v.1.15,2013-03-28 08:57:00,
2013-03-28 05:02:00,32.7,22.6,30.13,WSW,251,0.0,10.0,66,0.00,,,0.00,Wunderground v.1.15,2013-03-28 09:02:00,
2013-03-28 05:07:00,32.5,22.8,30.13,WSW,252,0.0,10.0,67,0.00,,,0.00,Wunderground v.1.15,2013-03-28 09:07:00,
2013-03-28 05:13:00,32.1,22.7,30.13,WSW,252,0.0,10.0,68,0.00,,,0.00,Wunderground v.1.15,2013-03-28 09:13:00,
2013-03-28 05:18:00,31.7,22.3,30.13,WSW,251,0.0,10.0,68,0.00,,,0.00,Wunderground v.1.15,2013-03-28 09:18:00,
2013-03-28 05:24:00,31.3,22.3,30.13,WSW,251,0.0,10.0,69,0.00,,,0.00,Wunderground v.1.15,2013-03-28 09:24:00,
2013-03-28 05:29:00,31.1,22.5,30.13,WSW,251,0.0,10.0,70,0.00,,,0.00,Wunderground v.1.15,2013-03-28 09:29:00,
2013-03-28 05:34:00,30.9,22.6,30.13,WSW,252,0.0,10.0,71,0.00,,,0.00,Wunderground v.1.15,2013-03-28 09:34:00,
2013-03-28 05:40:00,30.9,22.6,30.13,WSW,251,2.0,10.0,71,0.00,,,0.00,Wunderground v.1.15,2013-03-28 09:40:00,
2013-03-28 05:47:00,30.7,22.7,30.13,WSW,251,2.0,10.0,72,0.00,,,0.00,Wunderground v.1.15,2013-03-28 09:47:00,
2013-03-28 05:53:00,30.8,22.8,30.13,West,267,1.0,10.0,72,0.00,,,0.00,Wunderground v.1.15,2013-03-28 09:53:00,
2013-03-28 05:58:00,31.4,22.7,30.13,West,264,2.0,10.0,70,0.00,,,0.00,Wunderground v.1.15,2013-03-28 09:58:00,
2013-03-28 06:04:00,31.8,22.8,30.13,West,260,3.0,10.0,69,0.00,,,0.00,Wunderground v.1.15,2013-03-28 10:04:00,
2013-03-28 06:10:00,31.8,22.8,30.14,West,275,2.0,10.0,69,0.00,,,0.00,Wunderground v.1.15,2013-03-28 10:10:00,
2013-03-28 06:16:00,32.0,22.6,30.14,WNW,287,2.0,10.0,68,0.00,,,0.00,Wunderground v.1.15,2013-03-28 10:16:00,
2013-03-28 06:22:00,32.1,22.7,30.14,WSW,250,2.0,10.0,68,0.00,,,0.00,Wunderground v.1.15,2013-03-28 10:22:00,
2013-03-28 06:28:00,32.4,22.7,30.14,WSW,257,2.0,10.0,67,0.00,,,0.00,Wunderground v.1.15,2013-03-28 10:28:00,
2013-03-28 06:34:00,32.6,22.8,30.14,WSW,251,3.0,10.0,67,0.00,,,0.00,Wunderground v.1.15,2013-03-28 10:34:00,
2013-03-28 06:40:00,32.6,22.8,30.13,WSW,246,4.0,10.0,67,0.00,,,0.00,Wunderground v.1.15,2013-03-28 10:40:00,
2013-03-28 06:45:00,32.6,22.8,30.13,WSW,245,4.0,10.0,67,0.00,,,0.00,Wunderground v.1.15,2013-03-28 10:45:00,
2013-03-28 06:50:00,32.8,22.7,30.13,West,260,4.0,10.0,66,0.00,,,0.00,Wunderground v.1.15,2013-03-28 10:50:00,
2013-03-28 06:56:00,32.9,22.8,30.13,West,270,4.0,10.0,66,0.00,,,0.00,Wunderground v.1.15,2013-03-28 10:56:00,
2013-03-28 07:02:00,33.0,22.9,30.13,WSW,244,4.0,10.0,66,0.00,,,0.00,Wunderground v.1.15,2013-03-28 11:02:00,
2013-03-28 07:08:00,33.1,23.0,30.14,West,270,4.0,10.0,66,0.00,,,0.00,Wunderground v.1.15,2013-03-28 11:08:00,
2013-03-28 07:13:00,33.1,22.6,30.14,WSW,241,3.0,10.0,65,0.00,,,0.00,Wunderground v.1.15,2013-03-28 11:13:00,
2013-03-28 07:19:00,33.0,22.5,30.14,WSW,253,3.0,10.0,65,0.00,,,0.00,Wunderground v.1.15,2013-03-28 11:19:00,
2013-03-28 07:24:00,32.9,22.8,30.14,WSW,257,2.0,10.0,66,0.00,,,0.00,Wunderground v.1.15,2013-03-28 11:24:00,
2013-03-28 07:30:00,33.1,22.6,30.14,WNW,299,2.0,2.0,65,0.00,,,0.00,Wunderground v.1.15,2013-03-28 11:30:00,
2013-03-28 07:36:00,33.4,22.9,30.14,West,270,2.0,10.0,65,0.00,,,0.00,Wunderground v.1.15,2013-03-28 11:36:00,
2013-03-28 07:42:00,33.6,23.1,30.15,West,266,1.0,10.0,65,0.00,,,0.00,Wunderground v.1.15,2013-03-28 11:42:00,
2013-03-28 07:47:00,33.9,23.4,30.15,NW,326,1.0,10.0,65,0.00,,,0.00,Wunderground v.1.15,2013-03-28 11:47:00,
2013-03-28 07:52:00,34.3,23.4,30.15,WNW,283,1.0,10.0,64,0.00,,,0.00,Wunderground v.1.15,2013-03-28 11:52:00,
2013-03-28 07:58:00,34.8,23.1,30.15,West,262,2.0,10.0,62,0.00,,,0.00,Wunderground v.1.15,2013-03-28 11:58:00,
2013-03-28 08:04:00,35.1,23.0,30.15,West,268,3.0,10.0,61,0.00,,,0.00,Wunderground v.1.15,2013-03-28 12:04:00,
2013-03-28 08:09:00,35.3,23.2,30.15,West,266,3.0,10.0,61,0.00,,,0.00,Wunderground v.1.15,2013-03-28 12:09:00,
2013-03-28 08:15:00,35.6,23.1,30.15,West,275,4.0,10.0,60,0.00,,,0.00,Wunderground v.1.15,2013-03-28 12:15:00,
2013-03-28 08:21:00,35.8,22.9,30.15,WNW,292,6.0,10.0,59,0.00,,,0.00,Wunderground v.1.15,2013-03-28 12:21:00,
2013-03-28 08:26:00,35.9,23.0,30.15,West,276,5.0,10.0,59,0.00,,,0.00,Wunderground v.1.15,2013-03-28 12:26:00,
2013-03-28 08:32:00,35.9,23.0,30.15,WNW,295,4.0,10.0,59,0.00,,,0.00,Wunderground v.1.15,2013-03-28 12:32:00,
2013-03-28 08:37:00,36.2,22.8,30.15,West,270,5.0,10.0,58,0.00,,,0.00,Wunderground v.1.15,2013-03-28 12:37:00,
2013-03-28 08:42:00,37.1,23.7,30.14,West,274,6.0,10.0,58,0.00,,,0.00,Wunderground v.1.15,2013-03-28 12:42:00,
2013-03-28 08:48:00,38.2,23.9,30.14,WSW,253,6.0,12.0,56,0.00,,,0.00,Wunderground v.1.15,2013-03-28 12:48:00,
2013-03-28 08:53:00,38.7,24.3,30.14,West,270,7.0,10.0,56,0.00,,,0.00,Wunderground v.1.15,2013-03-28 12:53:00,
2013-03-28 08:59:00,38.8,23.6,30.14,NNW,344,9.0,15.0,54,0.00,,,0.00,Wunderground v.1.15,2013-03-28 12:59:00,
2013-03-28 09:04:00,38.8,23.6,30.14,NW,310,9.0,11.0,54,0.00,,,0.00,Wunderground v.1.15,2013-03-28 13:04:00,
2013-03-28 09:10:00,39.4,23.2,30.15,WNW,301,9.0,11.0,52,0.00,,,0.00,Wunderground v.1.15,2013-03-28 13:10:00,
2013-03-28 09:17:00,39.6,22.9,30.15,NNW,334,9.0,14.0,51,0.00,,,0.00,Wunderground v.1.15,2013-03-28 13:17:00,
2013-03-28 09:22:00,39.6,22.9,30.15,NW,305,8.0,10.0,51,0.00,,,0.00,Wunderground v.1.15,2013-03-28 13:22:00,
2013-03-28 09:28:00,40.0,23.8,30.15,West,281,7.0,10.0,52,0.00,,,0.00,Wunderground v.1.15,2013-03-28 13:28:00,
2013-03-28 09:33:00,40.4,23.2,30.15,WSW,254,7.0,11.0,50,0.00,,,0.00,Wunderground v.1.15,2013-03-28 13:33:00,
2013-03-28 09:38:00,40.5,23.3,30.15,WNW,293,8.0,11.0,50,0.00,,,0.00,Wunderground v.1.15,2013-03-28 13:38:00,
2013-03-28 09:44:00,40.6,23.4,30.15,NW,304,8.0,11.0,50,0.00,,,0.00,Wunderground v.1.15,2013-03-28 13:44:00,
2013-03-28 09:49:00,40.9,23.7,30.15,WNW,291,8.0,11.0,50,0.00,,,0.00,Wunderground v.1.15,2013-03-28 13:49:00,
2013-03-28 09:54:00,40.7,22.5,30.15,WNW,303,10.0,15.0,48,0.00,,,0.00,Wunderground v.1.15,2013-03-28 13:54:00,
2013-03-28 09:59:00,41.0,23.3,30.15,WNW,287,11.0,16.0,49,0.00,,,0.00,Wunderground v.1.15,2013-03-28 13:59:00,
2013-03-28 10:04:00,41.1,22.9,30.15,WSW,256,11.0,15.0,48,0.00,,,0.00,Wunderground v.1.15,2013-03-28 14:04:00,
2013-03-28 10:09:00,41.3,23.1,30.15,NW,311,11.0,16.0,48,0.00,,,0.00,Wunderground v.1.15,2013-03-28 14:09:00,
2013-03-28 10:14:00,41.6,23.3,30.15,West,278,11.0,21.0,48,0.00,,,0.00,Wunderground v.1.15,2013-03-28 14:14:00,
2013-03-28 10:19:00,41.7,23.4,30.15,WNW,282,11.0,21.0,48,0.00,,,0.00,Wunderground v.1.15,2013-03-28 14:19:00,
2013-03-28 10:25:00,42.3,24.0,30.15,NW,317,9.0,13.0,48,0.00,,,0.00,Wunderground v.1.15,2013-03-28 14:25:00,
2013-03-28 10:31:00,42.1,23.3,30.16,West,280,9.0,10.0,47,0.00,,,0.00,Wunderground v.1.15,2013-03-28 14:31:00,
2013-03-28 10:36:00,42.8,23.9,30.16,NNW,330,9.0,12.0,47,0.00,,,0.00,Wunderground v.1.15,2013-03-28 14:36:00,
2013-03-28 10:41:00,43.1,23.2,30.16,NW,307,8.0,13.0,45,0.00,,,0.00,Wunderground v.1.15,2013-03-28 14:41:00,
2013-03-28 10:46:00,43.1,23.2,30.16,NW,305,9.0,13.0,45,0.00,,,0.00,Wunderground v.1.15,2013-03-28 14:46:00,
2013-03-28 10:52:00,42.7,22.8,30.16,NNW,330,8.0,10.0,45,0.00,,,0.00,Wunderground v.1.15,2013-03-28 14:52:00,
2013-03-28 10:57:00,43.1,24.2,30.16,NW,324,7.0,13.0,47,0.00,,,0.00,Wunderground v.1.15,2013-03-28 14:57:00,
2013-03-28 11:03:00,42.6,22.7,30.16,WNW,302,7.0,10.0,45,0.00,,,0.00,Wunderground v.1.15,2013-03-28 15:03:00,
2013-03-28 11:08:00,42.1,22.8,30.16,WSW,248,8.0,11.0,46,0.00,,,0.00,Wunderground v.1.15,2013-03-28 15:08:00,
2013-03-28 11:13:00,41.8,22.0,30.16,NW,322,9.0,14.0,45,0.00,,,0.00,Wunderground v.1.15,2013-03-28 15:13:00,
2013-03-28 11:19:00,41.9,23.1,30.16,WNW,291,8.0,14.0,47,0.00,,,0.00,Wunderground v.1.15,2013-03-28 15:19:00,
2013-03-28 11:24:00,42.4,23.1,30.17,WNW,282,8.0,11.0,46,0.00,,,0.00,Wunderground v.1.15,2013-03-28 15:24:00,
2013-03-28 11:29:00,42.0,22.2,30.16,NW,314,9.0,11.0,45,0.00,,,0.00,Wunderground v.1.15,2013-03-28 15:29:00,
2013-03-28 11:34:00,42.0,22.2,30.17,NNW,341,8.0,11.0,45,0.00,,,0.00,Wunderground v.1.15,2013-03-28 15:34:00,
2013-03-28 11:39:00,42.1,22.8,30.17,West,270,8.0,11.0,46,0.00,,,0.00,Wunderground v.1.15,2013-03-28 15:39:00,
2013-03-28 11:45:00,42.2,22.4,30.17,West,270,8.0,11.0,45,0.00,,,0.00,Wunderground v.1.15,2013-03-28 15:45:00,
2013-03-28 11:51:00,42.0,22.7,30.17,NW,314,7.0,9.0,46,0.00,,,0.00,Wunderground v.1.15,2013-03-28 15:51:00,
2013-03-28 11:57:00,42.1,22.3,30.16,WNW,299,6.0,10.0,45,0.00,,,0.00,Wunderground v.1.15,2013-03-28 15:57:00,
2013-03-28 12:02:00,42.3,23.0,30.16,NW,318,6.0,10.0,46,0.00,,,0.00,Wunderground v.1.15,2013-03-28 16:02:00,
2013-03-28 12:07:00,42.4,22.0,30.16,NW,315,7.0,10.0,44,0.00,,,0.00,Wunderground v.1.15,2013-03-28 16:07:00,
2013-03-28 12:13:00,42.4,22.5,30.16,NW,304,7.0,13.0,45,0.00,,,0.00,Wunderground v.1.15,2013-03-28 16:13:00,
2013-03-28 12:18:00,42.5,22.1,30.16,NNW,330,9.0,13.0,44,0.00,,,0.00,Wunderground v.1.15,2013-03-28 16:18:00,
2013-03-28 12:23:00,42.9,23.0,30.16,WNW,282,8.0,10.0,45,0.00,,,0.00,Wunderground v.1.15,2013-03-28 16:23:00,
2013-03-28 12:28:00,43.0,22.5,30.16,NW,326,7.0,15.0,44,0.00,,,0.00,Wunderground v.1.15,2013-03-28 16:28:00,
2013-03-28 12:34:00,43.1,22.6,30.16,NNW,334,8.0,11.0,44,0.00,,,0.00,Wunderground v.1.15,2013-03-28 16:34:00,
2013-03-28 12:40:00,43.2,22.2,30.16,West,259,8.0,8.0,43,0.00,,,0.00,Wunderground v.1.15,2013-03-28 16:40:00,
2013-03-28 12:47:00,43.6,22.5,30.16,NW,309,8.0,11.0,43,0.00,,,0.00,Wunderground v.1.15,2013-03-28 16:47:00,
2013-03-28 12:53:00,43.3,22.3,30.15,WNW,285,8.0,10.0,43,0.00,,,0.00,Wunderground v.1.15,2013-03-28 16:53:00,
2013-03-28 12:58:00,43.2,22.2,30.15,NNW,343,9.0,11.0,43,0.00,,,0.00,Wunderground v.1.15,2013-03-28 16:58:00,
2013-03-28 13:04:00,43.2,22.7,30.15,NNW,329,9.0,10.0,44,0.00,,,0.00,Wunderground v.1.15,2013-03-28 17:04:00,
2013-03-28 13:09:00,43.3,23.9,30.16,North,354,7.0,10.0,46,0.00,,,0.00,Wunderground v.1.15,2013-03-28 17:09:00,
2013-03-28 13:15:00,43.8,24.3,30.15,NNW,337,6.0,10.0,46,0.00,,,0.00,Wunderground v.1.15,2013-03-28 17:15:00,
2013-03-28 13:20:00,43.9,24.9,30.15,NW,308,6.0,10.0,47,0.00,,,0.00,Wunderground v.1.15,2013-03-28 17:20:00,
2013-03-28 13:25:00,44.2,25.2,30.15,NW,325,5.0,10.0,47,0.00,,,0.00,Wunderground v.1.15,2013-03-28 17:25:00,
2013-03-28 13:30:00,44.0,24.5,30.15,NW,326,6.0,12.0,46,0.00,,,0.00,Wunderground v.1.15,2013-03-28 17:30:00,
2013-03-28 13:35:00,44.4,25.9,30.15,North,354,7.0,12.0,48,0.00,,,0.00,Wunderground v.1.15,2013-03-28 17:35:00,
2013-03-28 13:40:00,44.4,24.9,30.15,North,4,8.0,8.0,46,0.00,,,0.00,Wunderground v.1.15,2013-03-28 17:40:00,
2013-03-28 13:46:00,45.7,26.6,30.15,NNW,345,7.0,10.0,47,0.00,,,0.00,Wunderground v.1.15,2013-03-28 17:46:00,
2013-03-28 13:51:00,45.4,24.7,30.15,North,359,7.0,12.0,44,0.00,,,0.00,Wunderground v.1.15,2013-03-28 17:51:00,
2013-03-28 13:57:00,44.9,24.8,30.14,North,4,8.0,12.0,45,0.00,,,0.00,Wunderground v.1.15,2013-03-28 17:57:00,
2013-03-28 14:03:00,45.2,25.6,30.14,NNW,329,7.0,10.0,46,0.00,,,0.00,Wunderground v.1.15,2013-03-28 18:03:00,
2013-03-28 14:08:00,45.2,24.6,30.14,NNW,335,6.0,11.0,44,0.00,,,0.00,Wunderground v.1.15,2013-03-28 18:08:00,
2013-03-28 14:14:00,44.5,25.5,30.15,North,359,7.0,11.0,47,0.00,,,0.00,Wunderground v.1.15,2013-03-28 18:14:00,
2013-03-28 14:19:00,44.6,25.6,30.14,NW,307,7.0,11.0,47,0.00,,,0.00,Wunderground v.1.15,2013-03-28 18:19:00,
2013-03-28 14:25:00,44.9,25.9,30.15,NNW,347,6.0,10.0,47,0.00,,,0.00,Wunderground v.1.15,2013-03-28 18:25:00,
2013-03-28 14:31:00,44.7,25.7,30.14,NNE,12,6.0,12.0,47,0.00,,,0.00,Wunderground v.1.15,2013-03-28 18:31:00,
2013-03-28 14:36:00,44.7,25.2,30.14,North,354,8.0,13.0,46,0.00,,,0.00,Wunderground v.1.15,2013-03-28 18:36:00,
2013-03-28 14:42:00,44.7,25.2,30.15,NW,310,10.0,13.0,46,0.00,,,0.00,Wunderground v.1.15,2013-03-28 18:42:00,
2013-03-28 14:47:00,44.5,24.5,30.15,NW,321,10.0,13.0,45,0.00,,,0.00,Wunderground v.1.15,2013-03-28 18:47:00,
2013-03-28 14:53:00,44.1,24.6,30.15,NNW,343,9.0,16.0,46,0.00,,,0.00,Wunderground v.1.15,2013-03-28 18:53:00,
2013-03-28 14:58:00,43.9,24.9,30.15,NNW,341,9.0,16.0,47,0.00,,,0.00,Wunderground v.1.15,2013-03-28 18:58:00,
2013-03-28 15:04:00,43.6,24.7,30.15,North,8,9.0,13.0,47,0.00,,,0.00,Wunderground v.1.15,2013-03-28 19:04:00,
2013-03-28 15:09:00,43.5,24.6,30.15,NNW,335,10.0,13.0,47,0.00,,,0.00,Wunderground v.1.15,2013-03-28 19:09:00,
2013-03-28 15:15:00,43.6,25.2,30.15,NW,322,10.0,10.0,48,0.00,,,0.00,Wunderground v.1.15,2013-03-28 19:15:00,
2013-03-28 15:21:00,43.9,25.5,30.15,WNW,295,9.0,10.0,48,0.00,,,0.00,Wunderground v.1.15,2013-03-28 19:21:00,
2013-03-28 15:27:00,44.1,25.6,30.15,NW,325,9.0,12.0,48,0.00,,,0.00,Wunderground v.1.15,2013-03-28 19:27:00,
2013-03-28 15:32:00,44.5,25.5,30.15,NNW,341,9.0,10.0,47,0.00,,,0.00,Wunderground v.1.15,2013-03-28 19:32:00,
2013-03-28 15:37:00,44.3,25.3,30.15,NW,322,10.0,12.0,47,0.00,,,0.00,Wunderground v.1.15,2013-03-28 19:37:00,
2013-03-28 15:43:00,44.2,25.2,30.15,North,10,10.0,16.0,47,0.00,,,0.00,Wunderground v.1.15,2013-03-28 19:43:00,
2013-03-28 15:48:00,44.0,25.0,30.15,NW,320,10.0,16.0,47,0.00,,,0.00,Wunderground v.1.15,2013-03-28 19:48:00,
2013-03-28 15:54:00,43.8,25.4,30.15,North,4,9.0,10.0,48,0.00,,,0.00,Wunderground v.1.15,2013-03-28 19:54:00,
2013-03-28 15:59:00,43.6,25.2,30.15,North,349,9.0,13.0,48,0.00,,,0.00,Wunderground v.1.15,2013-03-28 19:59:00,
2013-03-28 16:05:00,43.1,24.7,30.16,NNW,330,11.0,15.0,48,0.00,,,0.00,Wunderground v.1.15,2013-03-28 20:05:00,
2013-03-28 16:10:00,42.9,24.5,30.16,North,11,12.0,12.0,48,0.00,,,0.00,Wunderground v.1.15,2013-03-28 20:10:00,
2013-03-28 16:16:00,43.0,25.1,30.16,NW,312,11.0,15.0,49,0.00,,,0.00,Wunderground v.1.15,2013-03-28 20:16:00,
2013-03-28 16:21:00,43.1,25.2,30.16,NNW,327,10.0,12.0,49,0.00,,,0.00,Wunderground v.1.15,2013-03-28 20:21:00,
2013-03-28 16:27:00,43.0,25.1,30.16,NW,323,9.0,13.0,49,0.00,,,0.00,Wunderground v.1.15,2013-03-28 20:27:00,
2013-03-28 16:32:00,43.0,25.1,30.16,NNW,344,9.0,10.0,49,0.00,,,0.00,Wunderground v.1.15,2013-03-28 20:32:00,
2013-03-28 16:38:00,43.0,25.1,30.16,NW,309,9.0,14.0,49,0.00,,,0.00,Wunderground v.1.15,2013-03-28 20:38:00,
2013-03-28 16:44:00,43.1,25.2,30.16,NNW,343,10.0,15.0,49,0.00,,,0.00,Wunderground v.1.15,2013-03-28 20:44:00,
2013-03-28 16:49:00,42.7,25.3,30.17,NNW,343,9.0,15.0,50,0.00,,,0.00,Wunderground v.1.15,2013-03-28 20:49:00,
2013-03-28 16:54:00,42.7,25.3,30.17,NW,314,8.0,10.0,50,0.00,,,0.00,Wunderground v.1.15,2013-03-28 20:54:00,
2013-03-28 16:59:00,42.5,25.1,30.17,WNW,295,8.0,10.0,50,0.00,,,0.00,Wunderground v.1.15,2013-03-28 20:59:00,
2013-03-28 17:05:00,42.6,25.2,30.16,West,267,7.0,10.0,50,0.00,,,0.00,Wunderground v.1.15,2013-03-28 21:05:00,
2013-03-28 17:10:00,42.6,25.2,30.16,NW,323,7.0,10.0,50,0.00,,,0.00,Wunderground v.1.15,2013-03-28 21:10:00,
2013-03-28 17:16:00,43.2,25.3,30.17,NNW,345,8.0,10.0,49,0.00,,,0.00,Wunderground v.1.15,2013-03-28 21:16:00,
2013-03-28 17:21:00,44.2,25.7,30.17,WNW,303,7.0,12.0,48,0.00,,,0.00,Wunderground v.1.15,2013-03-28 21:21:00,
2013-03-28 17:27:00,44.5,25.5,30.17,West,276,6.0,15.0,47,0.00,,,0.00,Wunderground v.1.15,2013-03-28 21:27:00,
2013-03-28 17:32:00,43.6,25.2,30.18,NW,310,8.0,10.0,48,0.00,,,0.00,Wunderground v.1.15,2013-03-28 21:32:00,
2013-03-28 17:37:00,43.0,25.1,30.18,NNW,339,9.0,10.0,49,0.00,,,0.00,Wunderground v.1.15,2013-03-28 21:37:00,
2013-03-28 17:43:00,42.6,25.2,30.18,NW,307,8.0,10.0,50,0.00,,,0.00,Wunderground v.1.15,2013-03-28 21:43:00,
2013-03-28 17:48:00,42.4,24.6,30.17,NW,308,8.0,12.0,49,0.00,,,0.00,Wunderground v.1.15,2013-03-28 21:48:00,
2013-03-28 17:54:00,42.3,25.0,30.17,NW,322,8.0,13.0,50,0.00,,,0.00,Wunderground v.1.15,2013-03-28 21:54:00,
2013-03-28 17:59:00,42.4,25.1,30.17,NW,316,7.0,13.0,50,0.00,,,0.00,Wunderground v.1.15,2013-03-28 21:59:00,
2013-03-28 18:05:00,42.4,25.1,30.18,NW,326,7.0,10.0,50,0.00,,,0.00,Wunderground v.1.15,2013-03-28 22:05:00,
2013-03-28 18:10:00,42.4,25.1,30.18,WNW,293,7.0,10.0,50,0.00,,,0.00,Wunderground v.1.15,2013-03-28 22:10:00,
2013-03-28 18:16:00,42.3,25.0,30.19,NNW,328,7.0,10.0,50,0.00,,,0.00,Wunderground v.1.15,2013-03-28 22:16:00,
2013-03-28 18:22:00,42.3,25.4,30.19,WNW,287,6.0,10.0,51,0.00,,,0.00,Wunderground v.1.15,2013-03-28 22:22:00,
2013-03-28 18:28:00,42.1,25.3,30.19,WNW,296,6.0,17.0,51,0.00,,,0.00,Wunderground v.1.15,2013-03-28 22:28:00,
2013-03-28 18:33:00,42.1,25.7,30.19,NW,319,6.0,10.0,52,0.00,,,0.00,Wunderground v.1.15,2013-03-28 22:33:00,
2013-03-28 18:38:00,42.0,25.6,30.19,NNW,337,5.0,10.0,52,0.00,,,0.00,Wunderground v.1.15,2013-03-28 22:38:00,
2013-03-28 18:44:00,41.9,25.5,30.19,NNW,343,5.0,10.0,52,0.00,,,0.00,Wunderground v.1.15,2013-03-28 22:44:00,
2013-03-28 18:50:00,41.9,25.5,30.19,WNW,291,5.0,5.0,52,0.00,,,0.00,Wunderground v.1.15,2013-03-28 22:50:00,
2013-03-28 18:55:00,41.8,25.4,30.19,NW,322,5.0,10.0,52,0.00,,,0.00,Wunderground v.1.15,2013-03-28 22:55:00,
2013-03-28 19:00:00,41.7,25.4,30.19,NW,323,5.0,5.0,52,0.00,,,0.00,Wunderground v.1.15,2013-03-28 23:00:00,
2013-03-28 19:07:00,41.6,25.7,30.20,NW,321,5.0,10.0,53,0.00,,,0.00,Wunderground v.1.15,2013-03-28 23:07:00,
2013-03-28 19:12:00,41.6,25.7,30.19,NNW,346,5.0,10.0,53,0.00,,,0.00,Wunderground v.1.15,2013-03-28 23:12:00,
2013-03-28 19:18:00,41.5,26.1,30.19,NW,314,5.0,10.0,54,0.00,,,0.00,Wunderground v.1.15,2013-03-28 23:18:00,
2013-03-28 19:24:00,41.4,26.0,30.20,NNW,334,4.0,10.0,54,0.00,,,0.00,Wunderground v.1.15,2013-03-28 23:24:00,
2013-03-28 19:29:00,41.3,25.9,30.20,North,349,3.0,10.0,54,0.00,,,0.00,Wunderground v.1.15,2013-03-28 23:29:00,
2013-03-28 19:34:00,41.2,25.8,30.20,NW,314,2.0,10.0,54,0.00,,,0.00,Wunderground v.1.15,2013-03-28 23:34:00,
2013-03-28 19:39:00,41.1,25.7,30.20,NW,315,2.0,10.0,54,0.00,,,0.00,Wunderground v.1.15,2013-03-28 23:39:00,
2013-03-28 19:44:00,41.0,26.1,30.20,WNW,303,1.0,10.0,55,0.00,,,0.00,Wunderground v.1.15,2013-03-28 23:44:00,
2013-03-28 19:50:00,40.9,26.0,30.20,NW,320,2.0,10.0,55,0.00,,,0.00,Wunderground v.1.15,2013-03-28 23:50:00,
2013-03-28 19:56:00,40.8,26.3,30.20,NNW,338,3.0,10.0,56,0.00,,,0.00,Wunderground v.1.15,2013-03-28 23:56:00,
2013-03-28 20:02:00,40.7,26.2,30.20,NW,314,3.0,10.0,56,0.00,,,0.00,Wunderground v.1.15,2013-03-29 00:02:00,
2013-03-28 20:08:00,40.5,26.0,30.21,WNW,303,3.0,10.0,56,0.00,,,0.00,Wunderground v.1.15,2013-03-29 00:08:00,
2013-03-28 20:14:00,40.4,25.9,30.21,NW,316,3.0,10.0,56,0.00,,,0.00,Wunderground v.1.15,2013-03-29 00:14:00,
2013-03-28 20:19:00,40.3,26.3,30.21,WNW,295,3.0,10.0,57,0.00,,,0.00,Wunderground v.1.15,2013-03-29 00:19:00,
2013-03-28 20:24:00,40.2,26.2,30.21,NW,314,3.0,10.0,57,0.00,,,0.00,Wunderground v.1.15,2013-03-29 00:24:00,
2013-03-28 20:30:00,39.9,25.9,30.21,NW,314,2.0,2.0,57,0.00,,,0.00,Wunderground v.1.15,2013-03-29 00:30:00,
2013-03-28 20:35:00,39.6,26.0,30.21,NW,310,1.0,10.0,58,0.00,,,0.00,Wunderground v.1.15,2013-03-29 00:35:00,
2013-03-28 20:41:00,39.3,26.2,30.21,NW,305,1.0,10.0,59,0.00,,,0.00,Wunderground v.1.15,2013-03-29 00:41:00,
2013-03-28 20:46:00,39.1,26.0,30.21,NW,305,1.0,10.0,59,0.00,,,0.00,Wunderground v.1.15,2013-03-29 00:46:00,
2013-03-28 20:51:00,38.9,26.2,30.22,NW,305,0.0,10.0,60,0.00,,,0.00,Wunderground v.1.15,2013-03-29 00:51:00,
2013-03-28 20:56:00,38.8,26.1,30.22,NW,305,0.0,10.0,60,0.00,,,0.00,Wunderground v.1.15,2013-03-29 00:56:00,
2013-03-28 21:02:00,38.7,26.0,30.22,NW,305,0.0,10.0,60,0.00,,,0.00,Wunderground v.1.15,2013-03-29 01:02:00,
2013-03-28 21:08:00,38.6,25.9,30.22,NW,305,0.0,10.0,60,0.00,,,0.00,Wunderground v.1.15,2013-03-29 01:08:00,
2013-03-28 21:14:00,38.5,26.2,30.22,NW,305,0.0,10.0,61,0.00,,,0.00,Wunderground v.1.15,2013-03-29 01:14:00,
2013-03-28 21:19:00,38.4,26.5,30.22,NW,305,1.0,10.0,62,0.00,,,0.00,Wunderground v.1.15,2013-03-29 01:19:00,
2013-03-28 21:24:00,38.4,26.1,30.22,WNW,303,1.0,10.0,61,0.00,,,0.00,Wunderground v.1.15,2013-03-29 01:24:00,
2013-03-28 21:30:00,38.2,26.3,30.22,WNW,295,2.0,10.0,62,0.00,,,0.00,Wunderground v.1.15,2013-03-29 01:30:00,
2013-03-28 21:35:00,37.9,26.0,30.22,WNW,292,2.0,10.0,62,0.00,,,0.00,Wunderground v.1.15,2013-03-29 01:35:00,
2013-03-28 21:40:00,38.0,26.1,30.22,WNW,288,2.0,2.0,62,0.00,,,0.00,Wunderground v.1.15,2013-03-29 01:40:00,
2013-03-28 21:45:00,38.2,25.9,30.23,WNW,292,2.0,10.0,61,0.00,,,0.00,Wunderground v.1.15,2013-03-29 01:45:00,
2013-03-28 21:52:00,38.3,26.0,30.23,WNW,292,1.0,10.0,61,0.00,,,0.00,Wunderground v.1.15,2013-03-29 01:52:00,
2013-03-28 21:57:00,38.4,25.7,30.23,WNW,291,0.0,10.0,60,0.00,,,0.00,Wunderground v.1.15,2013-03-29 01:57:00,
2013-03-28 22:03:00,38.7,26.0,30.23,WNW,291,1.0,10.0,60,0.00,,,0.00,Wunderground v.1.15,2013-03-29 02:03:00,
2013-03-28 22:09:00,38.8,26.1,30.23,WNW,290,1.0,10.0,60,0.00,,,0.00,Wunderground v.1.15,2013-03-29 02:09:00,
2013-03-28 22:14:00,38.8,26.1,30.23,WNW,290,1.0,10.0,60,0.00,,,0.00,Wunderground v.1.15,2013-03-29 02:14:00,
2013-03-28 22:19:00,38.9,26.2,30.23,WNW,290,1.0,10.0,60,0.00,,,0.00,Wunderground v.1.15,2013-03-29 02:19:00,
2013-03-28 22:24:00,38.8,26.5,30.23,WNW,290,1.0,10.0,61,0.00,,,0.00,Wunderground v.1.15,2013-03-29 02:24:00,
2013-03-28 22:29:00,38.8,26.1,30.23,WNW,290,1.0,10.0,60,0.00,,,0.00,Wunderground v.1.15,2013-03-29 02:29:00,
2013-03-28 22:35:00,38.9,26.6,30.23,WNW,290,1.0,10.0,61,0.00,,,0.00,Wunderground v.1.15,2013-03-29 02:35:00,
2013-03-28 22:40:00,39.0,26.7,30.23,WNW,290,1.0,1.0,61,0.00,,,0.00,Wunderground v.1.15,2013-03-29 02:40:00,
2013-03-28 22:45:00,39.0,26.7,30.23,WNW,290,1.0,10.0,61,0.00,,,0.00,Wunderground v.1.15,2013-03-29 02:45:00,
2013-03-28 22:52:00,38.9,26.6,30.23,WNW,290,1.0,10.0,61,0.00,,,0.00,Wunderground v.1.15,2013-03-29 02:52:00,
2013-03-28 22:58:00,38.9,26.6,30.23,WNW,290,1.0,10.0,61,0.00,,,0.00,Wunderground v.1.15,2013-03-29 02:58:00,
2013-03-28 23:03:00,38.9,26.6,30.24,WNW,290,1.0,10.0,61,0.00,,,0.00,Wunderground v.1.15,2013-03-29 03:03:00,
2013-03-28 23:08:00,38.9,26.6,30.23,WNW,290,1.0,10.0,61,0.00,,,0.00,Wunderground v.1.15,2013-03-29 03:08:00,
2013-03-28 23:13:00,38.9,26.6,30.23,WNW,291,1.0,10.0,61,0.00,,,0.00,Wunderground v.1.15,2013-03-29 03:13:00,
2013-03-28 23:19:00,38.9,27.0,30.23,WNW,290,1.0,10.0,62,0.00,,,0.00,Wunderground v.1.15,2013-03-29 03:19:00,
2013-03-28 23:24:00,39.0,26.7,30.23,WNW,291,1.0,10.0,61,0.00,,,0.00,Wunderground v.1.15,2013-03-29 03:24:00,
2013-03-28 23:29:00,39.0,26.7,30.23,WNW,288,2.0,10.0,61,0.00,,,0.00,Wunderground v.1.15,2013-03-29 03:29:00,
2013-03-28 23:35:00,39.1,26.8,30.23,WNW,293,1.0,10.0,61,0.00,,,0.00,Wunderground v.1.15,2013-03-29 03:35:00,
2013-03-28 23:40:00,39.1,26.8,30.23,WNW,290,1.0,10.0,61,0.00,,,0.00,Wunderground v.1.15,2013-03-29 03:40:00,
2013-03-28 23:46:00,39.2,26.9,30.23,WNW,287,1.0,10.0,61,0.00,,,0.00,Wunderground v.1.15,2013-03-29 03:46:00,
2013-03-28 23:52:00,39.3,26.6,30.23,West,278,2.0,10.0,60,0.00,,,0.00,Wunderground v.1.15,2013-03-29 03:52:00,
2013-03-28 23:58:00,39.4,26.7,30.23,West,274,2.0,10.0,60,0.00,,,0.00,Wunderground v.1.15,2013-03-29 03:58:00,